THORAD AGENA D DEB

Satellite information

Favourite Embed

Satellite Type and Status

DEBRISIN ORBIT

Key statistics

Satellite THORAD AGENA D DEB at a glance.

Uptime

20117

Days in orbit

Revolutions

≈ 14.4

Per day

Orbit

SSO

Sun Synchronous Orbit

Inclination

100.0

Latest

Satellite identification and parameters

Extended collection of information and parameters for THORAD AGENA D DEB.

Object identification

Identified? True

Debris? True

Object name: THORAD AGENA D DEB

International designator: 1970-025LA

Object number (NORAD): 5422

Object ID (CCSDS): 5422

Country: UNITED STATES OF AMERICA (US)

Current information (Y/N): Y

RCS size: SMALL

Orbital parameters

Period: 99.925 minutes

Inclination: 99.9901 deg

SMA: 7133.068 km

Apoapsis: 810.159 km

Periapsis: 699.708 km

RAAN: 233.598 deg

Eccentricy: 0.0077422

Argument of periapsis: 105.7015 deg

Mean anomaly: 255.2726 deg

Mean motion: 14.41080314 rev/day

Mean motion (dot): 0.00010928 rev/day2

B* drag term: 0.0032875 1/REarth

Two-line elements (TLE)

Creation date: May 6, 2025, 3:54 a.m.

Reference frame: TEME

Reference center: EARTH

Epoch: May 5, 2025, 6:31 p.m. UTC

TLE line 0: 0 THORAD AGENA D DEB

TLE line 1: 1 05422U 70025LA 25125.77179702 .00010928 00000-0 32875-2 0 9999

TLE line 2: 2 05422 99.9901 233.5980 0077422 105.7015 255.2726 14.41080314798170

Live tracking on map

Real-time ground track for satellite THORAD AGENA D DEB.

In-orbit conjunctions

A list of the most updated potential collisions computed for object THORAD AGENA D DEB.

Target Orbit TCA Probability of collision Miss distance Type
CZ-6A DEB LEO 2025-02-16 22:34:16 0.0001058131 338.0 (m) DEBRIS
COSMOS 1275 DEB LEO 2024-11-09 18:35:35 0.0003894069 271.0 (m) DEBRIS

Associated space launch

Meteorological research and development satellite

THORAD AGENA D DEB was lifted into orbit during the mission ‘Thorad SLV-2G Agena D | Nimbus 4’, on board a Thorad SLV-2G Agena D space rocket.

The launch took place on April 8, 1970, 8:17 a.m. from Space Launch Complex 2E.

For more information about the launch, click the button.

Launch to space Thorad SLV-2G Agena D | Nimbus 4
Thorad SLV-2G Agena D | Nimbus 4

Agency: N/A

Status: Launch Successful

Launch date: April 8, 1970, 8:17 a.m. UTC

Rocket: Thorad SLV-2G Agena D

Launch pad: Space Launch Complex 2E

Location: Vandenberg SFB, CA, USA

...

Latest news about this satellite

There are no fresh news available about this satellite. Check back as we update our databases every day.


Newsletter sign-up

Weekly statistics, charts and insights to help you stay on top of the space industry.